Location: Montclair
(37.8322°N, 122.2092°W)
Time: 15:39:59
(UTC+00:00)

ALOS - Pass Details

Date: 08 September 2024
Orbit: 669 x 673 km, 98.0° (Epoch: 08 October)

Event Time Altitude Azimuth Distance (km) Brightness Sun altitude
Rises 12:02:00 0° 353° (N) 3,033 5.8 -20.4°
Reaches altitude 10° 12:04:58 10° 333° (NNW) 2,112 4.8 -19.9°
Enters shadow 12:06:48 15° 310° (NW) 1,768 4.1 -19.5°
